星链-37374(STARLINK-37374)

导读

STARLINK-37374(NORAD编号69153)是美国SpaceX公司星链(Starlink)卫星互联网星座的一颗低轨通信卫星,隶属于星链大规模全球组网计划。星链项目旨在通过数千颗低轨道卫星组网,为全球尤其是偏远地区提供高速低延迟宽带互联网服务。STARLINK-37374运行在近地轨道,承担着扩展星链网络覆盖、增强星座通信容量的任务。作为新一代星链卫星,它可能搭载了星间激光通信设备,支持星链星座的自主运行与数据转发,是SpaceX持续推进星链星座部署的组成部分,助力实现全球无缝互联网接入的目标。

基本信息
目录编号:
69153
目录名称:
STARLINK-37374
国际标识:
2026-111F
轨道中心:
EARTH
卫星名称:
星链-37374
卫星全名:
星链-37374(STARLINK-37374)
卫星状态:
在轨 (已飞行107 天)
发射日期:
2026-05-21 UTC
国别 :
美国 (US)
星等 :
--
轨道信息
数据来源 国际轨道数据 AOE轨道数据
星历时间 2026-09-05T01:23:45+0800
17小时前
查看轨道信息
2026-09-04T23:00:00+0800
20小时前
查看轨道信息
半长轴 6840.845km 6840.906km
偏心率 0.0001173 0.0001177
轨道倾角 53.156° 53.157°
近地点辐角 93.507° 102.262°
升交点赤经 139.721° 140.190°
平近点角 266.607° 66.130°
近地点 461.905km 461.963km
远地点 463.511km 463.575km
周期 93.848分钟 93.849分钟
每日圈数 15.343986 15.343781
详细信息
固有亮度:
5
最大亮度:
2.5
卫星平台:
Starlink V1.0
覆盖范围:
全球
运营商:
太空探索技术公司
运营商所在国:
美国
制造商(研发单位):
太空探索技术公司
制造商所在国:
美国
使用方式:
暂无
卫星简介
Starlink 计划是 SpaceX 推出的全球卫星互联网项目,通过发射低轨道卫星,为全球尤其是偏远地区提供高速、低延迟的互联网服务。自 2019 年起,Starlink 已部署数千颗卫星,旨在缩小全球数字鸿沟,推动互联网普及。该项目还为军事、航空等行业提供通信支持,带来广泛经济效益。
2D轨道图
3D轨道图
轨道高度分析图
轨道倾角分析图
轨道综合分析图
查看轨道综合分析图
交会数据列表
事件ID 空间交会对象 最接近时刻(TCA) 交会距离 交会风险概率(CRP) 交会风险指数(CRI) 操作
CDM_260907-010105-968006-915321
OBJECT D (59680)
2026-09-07T
01:01:27+0000
0.676 km
远距离
9.394513E-5 中风险 0.74
CDM_260907-160704-943006-915321
2026-09-07T
16:07:28+0000
0.398 km
远距离
6.80792E-5 中风险 0.72
CDM_260907-152004-943006-915321
2026-09-07T
15:20:35+0000
0.483 km
远距离
3.964061E-5 中风险 0.67
CDM_260907-160606-623006-915321
2026-09-07T
16:06:04+0000
0.800 km
远距离
1.667075E-5 中风险 0.59
CDM_260907-143206-623006-915321
2026-09-07T
14:32:17+0000
1.173 km
极远距离
4.521396E-6 低风险 0.48
CDM_260907-125306-808306-915321
2026-09-07T
12:53:42+0000
1.678 km
极远距离
3.012297E-6 低风险 0.45
CDM_260902-062905-675006-915323
2026-09-02T
06:29:46+0000
1.838 km
极远距离
2.56541E-6 低风险 0.43
CDM_260906-232506-323706-915321
2026-09-06T
23:25:18+0000
2.832 km
极远距离
8.684586E-7 极低风险 0.34
CDM_260907-182606-623006-915321
2026-09-07T
18:26:45+0000
2.405 km
极远距离
6.747874E-7 极低风险 0.32
CDM_260907-173906-623006-915321
2026-09-07T
17:39:51+0000
2.611 km
极远距离
5.958292E-7 极低风险 0.31